Reflectivity
-20 -20 -20 -20 -20 -20 -20 -20 -20 -20 -20 -20 -20 -20 -20 -20 -20 -20 -20 -20 -20 -20
-20 -20 -20 -20 -20 -20 -20 -20 -20 -20 -20 -20 -20 -20 -20 -20 -20 -20 -20 -20 -20 -20
-20 -20 -20 -20 -20 -20 -20 -20 -20 -20 -20 -20 -20 -20 -20 -20 -20 -20 -20 -20 -20 -20
-20 -20 -20 -20 -20 -20 -20 -20 -20 -20 -20 -20 -20 -20 -20 -20 -20 -20 -20 -20 -20 -20
-20 -20 -20 -20 -20 -20 -20 -20 -20 -20 -20 -20 -20 -20 -20 -20 -20 -20 -20 -20 -20 -20
-20 -20 -20 -20 -20 -20 -20 -20 -20 -20 -20 -20 -20 -20 -20 -20 -20 -20 -20 -20 -20 -20
-20 -20 -20 -20 -20 -20 -20 -20 -20 -20 -20 -20 -20 -20 -20 -20 -20 -20 -20 29 4 -20
-20 -20 -20 -20 -20 -20 -20 -20 -20 -20 -20 -20 -20 -20 -20 -20 -20 -20 -20 -19 25 -20
-20 -20 -20 -20 -20 -20 -20 -20 -20 -20 -20 -20 -20 -20 -20 -20 -20 -20 2 -9 -20 -19
-20 -20 -20 -20 -20 -20 -20 -20 -20 -20 -20 -20 -20 -20 -20 -20 -20 -20 -17 -15 -19 12
-20 -20 -20 -20 -20 -20 -20 -20 -20 -20 -20 -20 -20 -20 -20 -20 -20 -20 -10 11 -2 -15
-20 -20 -20 -20 -20 -20 -20 -20 -20 -20 -20 -20 -20 -20 -20 -8 -20 -19 -2 -16 -20 -0
-19 -20 -20 -20 -20 -20 -20 -20 -20 -20 -20 -20 -20 -20 -17 8 3 -20 -20 -18 -17 2
7 -20 -20 -20 -20 -20 -20 -20 -20 -19 -20 -20 -20 -20 -18 20 10 2 7 -20 -20 -20
Wind_Speed
17 11 11 10 8 8 7 7 9 10 9 8 7 6 6 4 4 5 5 6 4 3
15 15 12 10 10 8 8 6 9 11 10 8 8 8 7 5 6 6 5 5 4 3
16 15 12 11 11 10 9 8 9 11 11 9 9 9 8 5 5 6 4 4 6 4
15 14 12 13 12 12 11 10 11 12 12 11 10 9 9 7 7 7 7 5 6 7
18 16 15 15 13 12 13 11 12 12 11 11 11 10 11 10 9 10 8 8 7 7
18 17 17 17 16 12 13 13 12 12 13 12 12 11 11 10 10 10 10 9 9 7
20 19 18 17 16 15 13 12 13 14 13 13 12 12 12 11 10 9 10 8 7 7
19 18 16 16 16 15 14 13 13 12 12 12 12 10 12 12 12 12 10 6 6 6
19 18 17 16 16 14 13 13 13 13 14 13 10 15 19 17 13 11 9 8 8 6
19 19 18 16 15 16 16 14 14 14 14 14 15 19 21 19 10 10 10 11 9 8
19 20 18 17 17 16 14 15 14 14 14 14 14 15 13 18 10 8 10 10 9 10
20 19 18 19 18 15 14 14 14 13 14 14 7 13 12 11 9 7 8 6 8 8
20 20 21 20 19 16 14 14 10 12 11 11 8 14 18 16 7 7 5 5 5 11
18 20 19 17 15 16 15 12 12 12 11 11 12 11 16 19 10 7 5 4 4 4
Wind_Direction
198 195 198 191 192 200 194 197 191 192 190 189 175 179 174 175 180 181 185 186 184 170
197 196 196 192 195 194 194 185 185 189 193 183 181 180 180 181 187 182 186 198 184 175
194 196 189 188 195 190 193 191 180 186 192 186 185 181 182 183 189 184 189 184 184 191
196 193 190 196 199 190 184 184 184 190 191 190 188 184 188 190 182 194 197 186 186 200
194 191 193 201 204 192 192 186 186 187 190 192 194 189 194 191 193 199 199 201 193 208
197 193 197 202 205 193 193 191 187 189 192 192 192 190 200 198 193 202 208 198 197 207
198 198 200 201 204 201 193 186 189 191 195 198 197 198 198 197 198 202 214 206 203 202
196 199 199 201 204 202 197 197 186 182 191 193 198 200 198 195 197 203 214 172 210 212
193 195 197 199 200 198 196 197 184 185 187 189 199 199 197 197 199 200 194 178 205 223
192 197 197 194 194 197 196 187 187 189 187 193 205 200 203 194 192 186 188 203 201 224
195 197 191 191 198 198 193 189 186 188 190 201 214 203 183 192 193 186 187 196 194 208
195 197 191 194 195 193 191 194 192 185 192 206 200 169 183 166 189 186 184 190 205 203
195 194 195 193 191 189 193 196 185 191 194 186 176 175 174 165 170 187 193 196 178 195
195 196 197 193 187 185 184 182 188 189 178 175 174 181 164 148 160 186 197 177 187 205